Flag for Russia Weather past 2 weeks in Yakutsk, Russia

Now
73 °F

Sunny.


Feels Like: 77 °F
Forecast: 55 / 76 °F
Wind: 1 mph from East

Location: Jakutsk

Current Time: Aug 1, 2014 at 1:22:15 PM

Latest Report: Aug 1, 2014 at 1:00 PM


Visibility: 10 mi

Pressure: 29.62 "Hg

Humidity: 53%

Dew point: 55 °F

Location of YakutskLocation

Historic Weather in Yakutsk — Graph

°F

Yakutsk temperature yesterday

Maximum temperature yesterday: 77 °F (at 12:30 PM)
Minimum temperature yesterday: 50 °F (at 4:30 AM)
Average temperature yesterday: 64 °F

Past Weeks' High & Low Weather Summary

 TemperatureHumidityPressure
High88 °F (Jul 17, 1:30 PM)100% (Jul 21, 5:00 AM)29.95 "Hg (Jul 21, 5:00 AM)
Low36 °F (Jul 19, 12:00 PM)17% (Jul 26, 4:00 PM)29.30 "Hg (Jul 22, 11:00 PM)
Average66 °F58%29.60 "Hg
* Reported Jul 17 12:00 Noon — Aug 1 12:00 Noon, Yakutsk, Weather by CustomWeather, © 2014

Note: Actual official high and low records may vary slightly from our data, if they occured in-between our weather recording intervals... More about our weather records

Advertising

Yakutsk weather history for previous 24 hours

 ConditionsComfort  
Time TempWeatherWind HumidityBarometerVisibility
12:00 PM
Aug 1
68 °FSunny.1 mph69%29.62 "Hg10 mi
11:30 AM66 °FSunny.1 mph68%29.62 "Hg10 mi
11:00 AM66 °FSunny.3 mph64%29.65 "Hg10 mi
10:30 AM64 °FBroken clouds.1 mph68%29.62 "HgN/A
10:00 AM63 °FBroken clouds.No wind68%29.62 "HgN/A
9:30 AM63 °FBroken clouds.No wind68%29.62 "HgN/A
9:00 AM61 °FBroken clouds.No wind72%29.65 "HgN/A
8:30 AM61 °FSunny.3 mph72%29.65 "Hg10 mi
8:00 AM59 °FSunny.3 mph72%29.62 "Hg10 mi
7:30 AM57 °FSunny.No wind82%29.65 "Hg10 mi
7:00 AM54 °FSunny.No wind94%29.65 "Hg10 mi
6:30 AM54 °FSunny.No wind88%29.62 "Hg10 mi
6:00 AM52 °FSunny.1 mph88%29.62 "Hg10 mi
5:30 AM52 °FMostly cloudy.1 mph94%29.62 "HgN/A
5:00 AM52 °FMostly cloudy.No wind94%29.62 "HgN/A
4:30 AM54 °FMostly cloudy.No wind88%29.65 "HgN/A
4:00 AM54 °FMostly cloudy.3 mph94%29.62 "HgN/A
3:30 AM54 °FMostly cloudy.1 mph94%29.65 "HgN/A
3:00 AM54 °FMostly cloudy.3 mph94%29.62 "HgN/A
2:30 AM54 °FClear.1 mph94%29.62 "Hg10 mi
2:00 AM55 °FClear.3 mph88%29.62 "Hg10 mi
1:30 AM55 °FClear.1 mph94%29.65 "Hg10 mi
1:00 AM57 °FMostly cloudy.No wind88%29.62 "HgN/A
12:30 AM59 °FMostly cloudy.No wind88%29.62 "HgN/A
12:00 AM59 °FMostly cloudy.3 mph88%29.65 "HgN/A
11:30 PM
Jul 31
59 °FMostly cloudy.1 mph88%29.65 "HgN/A
11:00 PM61 °FSunny.3 mph83%29.65 "Hg10 mi
10:30 PM61 °FSunny.1 mph83%29.62 "Hg10 mi
10:00 PM59 °FSunny.1 mph82%29.62 "Hg10 mi
9:30 PM64 °FSunny.No wind73%29.62 "Hg10 mi
9:00 PM68 °FSunny.No wind60%29.62 "Hg10 mi
8:30 PM68 °FSunny.No wind64%29.62 "Hg10 mi
8:00 PM68 °FBroken clouds.No wind60%29.62 "HgN/A
7:30 PM70 °FMore clouds than sun.3 mph57%29.62 "HgN/A
7:00 PM72 °FMore clouds than sun.3 mph53%29.62 "HgN/A
6:30 PM72 °FOvercast.6 mph53%29.62 "HgN/A
6:00 PM73 °FMore clouds than sun.1 mph47%29.62 "HgN/A
5:30 PM73 °FMore clouds than sun.1 mph47%29.62 "HgN/A
5:00 PM73 °FMore clouds than sun.6 mph41%29.62 "HgN/A
4:30 PM73 °FMore clouds than sun.3 mph47%29.62 "HgN/A
4:00 PM75 °FMore clouds than sun.1 mph41%29.62 "HgN/A
3:30 PM72 °FThundershowers. Mostly cloudy.3 mph57%29.62 "HgN/A
3:00 PM73 °FMostly cloudy.6 mph50%29.62 "HgN/A
2:30 PM70 °FMore clouds than sun.10 mph57%29.62 "HgN/A
2:00 PM75 °FThunderstorms. More clouds than sun.1 mph39%29.62 "HgN/A
1:30 PM77 °FThundershowers. Broken clouds.No wind36%29.62 "HgN/A
1:00 PM75 °FBroken clouds.1 mph44%29.62 "HgN/A
Weather by CustomWeather, © 2014

See weather overviewHow to use our weather pages